Location: ???????
(55.7027°N, 37.3832°E)
Time: 20:22:21
(UTC+00:00)

Cosmos 2228 - Pass Details

Date: 14 April 2026
Orbit: 561 x 588 km, 82.5° (Epoch: 16 May)

Event Time Altitude Azimuth Distance (km) Brightness Sun altitude
Exits shadow 21:15:56 28° 79° (E) 1,119 4.4 -24.6°
Drops below altitude 10° 21:19:10 10° 30° (NNE) 1,911 6.3 -24.6°
Sets 21:21:34 0° 19° (NNE) 2,811 7.6 -24.6°
